EN

Hourly Weather Broniewek

Today, 16 April, Friday

Time Temperature Precipitation Wind Pressure Humidity
00:00 +3°C° 0.1 mm 4 mps 756 mmHg 96%
01:00 +3°C° 0.1 mm 4 mps 756 mmHg 96%
02:00 +3°C° 0.2 mm 4 mps 756 mmHg 96%
03:00 +1°C° 0.2 mm 4 mps 756 mmHg 97%
04:00 +1°C° 0.2 mm 4 mps 756 mmHg 97%
05:00 +1°C° 0.3 mm 4 mps 756 mmHg 97%
06:00 +1°C° 0.3 mm 4 mps 756 mmHg 97%
07:00 +1°C° 0.3 mm 4 mps 756 mmHg 97%
08:00 +1°C° 0 mm 4 mps 756 mmHg 96%
09:00 +1°C° 0 mm 4 mps 756 mmHg 95%
10:00 +2°C° 0 mm 5 mps 756 mmHg 94%
11:00 +2°C° 0 mm 5 mps 756 mmHg 94%
12:00 +2°C° 0 mm 5 mps 756 mmHg 94%
13:00 +2°C° 0 mm 5 mps 756 mmHg 93%
14:00 +2°C° 0.1 mm 5 mps 756 mmHg 94%
15:00 +3°C° 0.1 mm 4 mps 756 mmHg 94%
16:00 +3°C° 0.1 mm 4 mps 755 mmHg 94%
17:00 +3°C° 0.8 mm 4 mps 755 mmHg 95%
18:00 +3°C° 0.8 mm 4 mps 756 mmHg 96%
19:00 +3°C° 0.8 mm 3 mps 756 mmHg 96%
20:00 +3°C° 0.2 mm 3 mps 756 mmHg 97%
21:00 +3°C° 0.2 mm 3 mps 756 mmHg 97%
22:00 +3°C° 0.2 mm 3 mps 756 mmHg 97%
23:00 +4°C° 0 mm 2 mps 756 mmHg 98%

Tomorrow, 17 April, Saturday

Time Temperature Precipitation Wind Pressure Humidity
00:00 +4°C° 0 mm 2 mps 756 mmHg 98%
01:00 +4°C° 0 mm 2 mps 756 mmHg 98%
02:00 +4°C° 0 mm 2 mps 756 mmHg 98%
03:00 +4°C° 0 mm 2 mps 755 mmHg 98%
04:00 +4°C° 0 mm 2 mps 755 mmHg 98%
05:00 +4°C° 0.1 mm 3 mps 756 mmHg 97%
06:00 +5°C° 0.1 mm 3 mps 756 mmHg 96%
07:00 +5°C° 0.1 mm 3 mps 756 mmHg 96%
08:00 +7°C° 0 mm 3 mps 756 mmHg 93%
09:00 +8°C° 0 mm 3 mps 756 mmHg 90%
10:00 +8°C° 0 mm 3 mps 756 mmHg 87%
11:00 +9°C° 0 mm 3 mps 756 mmHg 85%
12:00 +9°C° 0 mm 3 mps 756 mmHg 84%
13:00 +9°C° 0 mm 3 mps 756 mmHg 83%
14:00 +10°C° 0 mm 3 mps 756 mmHg 82%
15:00 +10°C° 0 mm 3 mps 756 mmHg 80%
16:00 +12°C° 0 mm 2 mps 756 mmHg 79%
17:00 +10°C° 0.1 mm 2 mps 756 mmHg 82%
18:00 +9°C° 0.1 mm 2 mps 756 mmHg 85%
19:00 +8°C° 0.1 mm 2 mps 756 mmHg 88%
20:00 +8°C° 0 mm 2 mps 756 mmHg 90%
21:00 +7°C° 0 mm 2 mps 756 mmHg 91%
22:00 +6°C° 0 mm 2 mps 757 mmHg 92%
23:00 +6°C° 0 mm 2 mps 757 mmHg 93%

Day after tomorrow, 18 April, Sunday

Time Temperature Precipitation Wind Pressure Humidity
00:00 +6°C° 0 mm 2 mps 757 mmHg 93%
01:00 +5°C° 0 mm 2 mps 757 mmHg 93%
02:00 +5°C° 0 mm 2 mps 757 mmHg 93%
03:00 +6°C° 0 mm 1 mps 757 mmHg 93%
04:00 +5°C° 0 mm 1 mps 757 mmHg 93%
05:00 +6°C° 0 mm 1 mps 757 mmHg 92%
06:00 +7°C° 0 mm 1 mps 757 mmHg 90%
07:00 +7°C° 0 mm 2 mps 757 mmHg 88%
08:00 +9°C° 0 mm 2 mps 757 mmHg 83%
09:00 +10°C° 0 mm 2 mps 757 mmHg 79%
10:00 +12°C° 0 mm 3 mps 757 mmHg 74%
11:00 +13°C° 0.1 mm 3 mps 757 mmHg 69%
12:00 +14°C° 0.1 mm 3 mps 757 mmHg 65%
13:00 +16°C° 0.1 mm 3 mps 756 mmHg 60%
14:00 +16°C° 0.2 mm 3 mps 756 mmHg 61%
15:00 +15°C° 0.2 mm 4 mps 756 mmHg 63%
16:00 +15°C° 0.2 mm 4 mps 756 mmHg 64%
17:00 +13°C° 0.3 mm 4 mps 756 mmHg 71%
18:00 +12°C° 0.3 mm 3 mps 756 mmHg 79%
19:00 +11°C° 0.3 mm 3 mps 756 mmHg 86%
20:00 +10°C° 0 mm 3 mps 756 mmHg 89%
21:00 +9°C° 0 mm 3 mps 756 mmHg 91%
22:00 +8°C° 0 mm 3 mps 756 mmHg 94%
23:00 +8°C° 0 mm 3 mps 756 mmHg 94%

19 April, Monday

Time Temperature Precipitation Wind Pressure Humidity
00:00 +8°C° 0 mm 3 mps 756 mmHg 93%
01:00 +8°C° 0 mm 2 mps 756 mmHg 93%
02:00 +8°C° 0 mm 2 mps 756 mmHg 92%
03:00 +8°C° 0 mm 2 mps 756 mmHg 91%
04:00 +8°C° 0 mm 2 mps 756 mmHg 91%
05:00 +8°C° 0 mm 2 mps 756 mmHg 89%
06:00 +9°C° 0 mm 2 mps 756 mmHg 88%
07:00 +9°C° 0 mm 2 mps 756 mmHg 87%
08:00 +10°C° 0 mm 3 mps 756 mmHg 79%
09:00 +11°C° 0 mm 3 mps 756 mmHg 71%
10:00 +12°C° 0 mm 4 mps 756 mmHg 63%
11:00 +12°C° 0 mm 4 mps 755 mmHg 58%
12:00 +13°C° 0 mm 4 mps 755 mmHg 54%
13:00 +13°C° 0 mm 4 mps 755 mmHg 50%
14:00 +13°C° 0 mm 4 mps 755 mmHg 51%
15:00 +13°C° 0 mm 4 mps 754 mmHg 52%
16:00 +13°C° 0 mm 3 mps 754 mmHg 53%
17:00 +12°C° 0.1 mm 3 mps 754 mmHg 59%
18:00 +10°C° 0.1 mm 3 mps 754 mmHg 65%
19:00 +9°C° 0.1 mm 3 mps 754 mmHg 71%
20:00 +8°C° 0 mm 3 mps 754 mmHg 77%
21:00 +7°C° 0 mm 3 mps 754 mmHg 82%
22:00 +7°C° 0 mm 2 mps 754 mmHg 87%
23:00 +6°C° 0 mm 2 mps 753 mmHg 89%

20 April, Tuesday

Time Temperature Precipitation Wind Pressure Humidity
00:00 +6°C° 0 mm 2 mps 753 mmHg 91%
01:00 +5°C° 0 mm 2 mps 753 mmHg 93%
02:00 +5°C° 0 mm 2 mps 752 mmHg 93%
03:00 +4°C° 0 mm 2 mps 752 mmHg 94%
04:00 +4°C° 0 mm 2 mps 752 mmHg 94%
05:00 +4°C° 0 mm 3 mps 752 mmHg 91%
06:00 +5°C° 0 mm 3 mps 752 mmHg 87%
07:00 +7°C° 0 mm 3 mps 752 mmHg 83%
08:00 +8°C° 0 mm 3 mps 752 mmHg 76%
09:00 +10°C° 0 mm 3 mps 751 mmHg 70%
10:00 +11°C° 0 mm 4 mps 751 mmHg 63%
11:00 +11°C° 0.1 mm 4 mps 751 mmHg 60%
12:00 +12°C° 0.1 mm 4 mps 750 mmHg 58%
13:00 +12°C° 0.1 mm 4 mps 750 mmHg 55%
14:00 +12°C° 0.1 mm 4 mps 750 mmHg 56%
15:00 +12°C° 0.1 mm 4 mps 749 mmHg 58%
16:00 +12°C° 0.1 mm 5 mps 749 mmHg 59%
17:00 +11°C° 0 mm 4 mps 749 mmHg 64%
18:00 +8°C° 0 mm 4 mps 749 mmHg 70%
19:00 +8°C° 0 mm 3 mps 749 mmHg 76%
20:00 +7°C° 0 mm 3 mps 749 mmHg 80%
21:00 +6°C° 0 mm 2 mps 749 mmHg 84%
22:00 +5°C° 0 mm 2 mps 749 mmHg 89%
23:00 +4°C° 0 mm 2 mps 748 mmHg 90%

21 April, Wednesday

Time Temperature Precipitation Wind Pressure Humidity
00:00 +3°C° 0 mm 3 mps 748 mmHg 91%
01:00 +2°C° 0 mm 3 mps 748 mmHg 93%
02:00 +2°C° 0 mm 3 mps 748 mmHg 93%
03:00 +2°C° 0 mm 3 mps 748 mmHg 94%
04:00 0°C° 0 mm 4 mps 748 mmHg 94%
05:00 +1°C° 0 mm 4 mps 748 mmHg 88%
06:00 +4°C° 0 mm 4 mps 748 mmHg 82%
07:00 +5°C° 0 mm 5 mps 748 mmHg 76%
08:00 +6°C° 0 mm 5 mps 748 mmHg 72%
09:00 +7°C° 0 mm 6 mps 748 mmHg 68%
10:00 +8°C° 0 mm 6 mps 749 mmHg 64%
11:00 +9°C° 0.1 mm 6 mps 749 mmHg 63%
12:00 +9°C° 0.1 mm 6 mps 749 mmHg 62%
13:00 +10°C° 0.1 mm 6 mps 749 mmHg 61%
14:00 +10°C° 0.1 mm 5 mps 749 mmHg 61%
15:00 +10°C° 0.1 mm 5 mps 749 mmHg 62%
16:00 +10°C° 0.1 mm 5 mps 749 mmHg 62%
17:00 +10°C° 0 mm 4 mps 749 mmHg 67%
18:00 +8°C° 0 mm 4 mps 749 mmHg 71%
19:00 +8°C° 0 mm 3 mps 750 mmHg 75%
20:00 +7°C° 0 mm 3 mps 750 mmHg 78%
21:00 +7°C° 0 mm 3 mps 750 mmHg 81%
22:00 +5°C° 0 mm 3 mps 750 mmHg 84%
23:00 +4°C° 0 mm 3 mps 750 mmHg 85%
Show more

We Need Your Consent

Meteoprog and our Service Providers may store and access personal data such as cookies, device identifiers or other similar technologies on your device and process such data to personalise content and ads, as well as provide social media features and to analyse the traffic.

  • Store and/or access information on your device

    Cookies, device identifiers or other information can be stored or accessed on your device for the purposes indicated above.

  • Personalised ads and content, ad and content measurement, audience insights, and products development

    Ads and content can be personalised based on a profile. More data can be added to better personalise ads and content. Ad and content performance can be measured. Insights about the audience who saw the ads and content can be derived. Such data can be used to develop or improve user’s experience, systems and software.

By clicking ‘I Agree’ you will allow the use of indicated cookies, device identifiers, web beacons or other similar technologies. Your settings can be changed in the browser on your device.

For certain purposes, legitimate interests may be relied on, rather than consent. You can read more about this in our Privacy and Cookie Policy.